This is the latest recevied weather packets stored in our database for station/object IT9DBI-3. If no packets are shown the sender has not sent any weather packets the latest 10 day(s).
| Time | Temp. | Humidity | Pressure | Rain* | Wind** | Luminosity | Snow |
|---|---|---|---|---|---|---|---|
| 1788140492 | 90° F | 58% | 760.7 mmHg | - | - | - | - |
| 1788139291 | 91° F | 58% | 760.8 mmHg | - | - | - | - |
| 1788138089 | 91° F | 59% | 760.6 mmHg | - | - | - | - |
| 1788136888 | 91° F | 58% | 760.8 mmHg | - | - | - | - |
| 1788135687 | 91° F | 58% | 760.9 mmHg | - | - | - | - |
| 1788134486 | 91° F | 58% | 760.9 mmHg | - | - | - | - |
| 1788133284 | 90° F | 62% | 760.9 mmHg | - | - | - | - |
| 1788132083 | 92° F | 61% | 760.7 mmHg | - | - | - | - |
| 1788130882 | 90° F | 65% | 760.7 mmHg | - | - | - | - |
| 1788129680 | 91° F | 65% | 760.7 mmHg | - | - | - | - |
| 1788128479 | 91° F | 65% | 760.6 mmHg | - | - | - | - |
| 1788127278 | 92° F | 63% | 760.6 mmHg | - | - | - | - |
| 1788126076 | 93° F | 62% | 760.6 mmHg | - | - | - | - |
| 1788124875 | 93° F | 61% | 760.5 mmHg | - | - | - | - |
| 1788123674 | 93° F | 61% | 760.4 mmHg | - | - | - | - |
| 1788122472 | 93° F | 61% | 760.4 mmHg | - | - | - | - |
| 1788121271 | 92° F | 63% | 760.4 mmHg | - | - | - | - |
| 1788120070 | 93° F | 60% | 760.3 mmHg | - | - | - | - |
| 1788118868 | 94° F | 59% | 760.3 mmHg | - | - | - | - |
| 1788117667 | 94° F | 61% | 760.2 mmHg | - | - | - | - |
| 1788116466 | 94° F | 62% | 760.2 mmHg | - | - | - | - |
| 1788115264 | 94° F | 64% | 760 mmHg | - | - | - | - |
| 1788114063 | 95° F | 63% | 759.9 mmHg | - | - | - | - |
| 1788112862 | 94° F | 65% | 759.8 mmHg | - | - | - | - |
| 1788111660 | 93° F | 65% | 759.7 mmHg | - | - | - | - |
* Rain since midnight (hover to see other rain measurements)
** Current wind speed in m/s (hover to see current wind gust speed)